Home   Weather   Harrisburg   Past weeks
Flag for USA

Past Weather in Harrisburg, Pennsylvania, USA — Yesterday and Last 2 Weeks

Now
27 °F

Passing clouds.


Feels Like: 27 °F
Forecast: 41 / 22 °F
Wind: No wind

Location: Capital City Airport

Current Time: Jan 23, 2019 at 6:50:55 am

Latest Report: Jan 23, 2019 at 5:56 am


Visibility: 10 mi

Pressure: 30.33 "Hg

Humidity: 58%

Dew Point: 14 °F

Location of HarrisburgLocation

Past Weather in Harrisburg — Graph

°F

Harrisburg Temperature Yesterday

Maximum temperature yesterday: 28 °F (at 2:56 pm)
Minimum temperature yesterday: 10 °F (at 4:56 am)
Average temperature yesterday: 20 °F

High & Low Weather Summary for the Past Weeks

 TemperatureHumidityPressure
High45 °F (Jan 9, 12:56 am)97% (Jan 20, 4:23 am)30.73 "Hg (Jan 20, 4:23 am)
Low7 °F (Jan 21, 6:56 am)24% (Jan 11, 3:56 pm)29.32 "Hg (Jan 20, 6:56 am)
Average30 °F65%30.16 "Hg
* Reported Jan 8 4:35 am — Jan 23 4:56 am, Harrisburg. Weather by CustomWeather, © 2019

Note: Actual official high and low records may vary slightly from our data, if they occured in-between our weather recording intervals... More about our weather records

Advertising

Harrisburg Weather History for the Previous 24 Hours

Scroll right to see more
 ConditionsComfort  
Time TempWeatherWind HumidityBarometerVisibility
4:56 am
Wed, Jan 23
27 °FPassing clouds.6 mph61%30.34 "Hg10 mi
3:56 am27 °FClear.5 mph58%30.36 "Hg10 mi
2:56 am27 °FClear.3 mph55%30.40 "Hg10 mi
1:56 am27 °FClear.5 mph53%30.44 "Hg10 mi
12:56 am27 °FClear.7 mph49%30.46 "Hg10 mi
11:56 pm
Tue, Jan 22
26 °FClear.9 mph50%30.50 "Hg10 mi
10:56 pm27 °FClear.8 mph49%30.52 "Hg10 mi
9:56 pm26 °FClear.8 mph50%30.54 "Hg10 mi
8:56 pm25 °FClear.No wind60%30.56 "Hg10 mi
7:56 pm25 °FClear.3 mph55%30.57 "Hg10 mi
6:56 pm26 °FClear.No wind50%30.58 "Hg10 mi
5:56 pm28 °FClear.No wind43%30.59 "Hg10 mi
4:56 pm27 °FSunny.No wind49%30.60 "Hg10 mi
3:56 pm28 °FSunny.No wind41%30.62 "Hg10 mi
2:56 pm28 °FSunny.3 mph39%30.63 "Hg10 mi
1:56 pm25 °FSunny.6 mph44%30.65 "Hg10 mi
12:56 pm23 °FSunny.6 mph46%30.67 "Hg10 mi
11:56 am21 °FSunny.No wind47%30.71 "Hg10 mi
10:56 am19 °FSunny.5 mph52%30.73 "Hg10 mi
9:56 am17 °FSunny.6 mph54%30.73 "Hg10 mi
8:56 am15 °FSunny.6 mph58%30.72 "Hg10 mi
7:56 am11 °FSunny.7 mph64%30.72 "Hg10 mi
6:56 am11 °FClear.6 mph64%30.70 "Hg10 mi
Weather by CustomWeather, © 2019

See weather overview